Location: Eaton Estates
(41.3089°N, 82.0057°W)
Time: 08:39:23
(UTC+00:00)

Cosmos 1725 Rocket - Pass Details

Date: 17 June 2021
Orbit: 962 x 990 km, 82.9° (Epoch: 27 July)

Event Time Altitude Azimuth Distance (km) Brightness Sun altitude
Rises 03:29:57 0° 352° (N) 3,656 8.3 -19.7°
Reaches altitude 10° 03:32:27 10° 353° (N) 2,706 7.3 -19.9°
Maximum altitude 03:38:40 87° 82° (E) 970 3.9 -20.4°
Enters shadow 03:41:23 36° 171° (S) 1,473 4.4 -20.7°
